Year,Month,Day,Hour,Minute,Value (Times are PST for insolation in W/m^2)
2013,03,28,00,00,0.00
2013,03,28,00,01,0.00
2013,03,28,00,02,0.00
2013,03,28,00,03,0.00
2013,03,28,00,04,0.00
2013,03,28,00,05,0.00
2013,03,28,00,06,0.00
2013,03,28,00,07,0.00
2013,03,28,00,08,0.00
2013,03,28,00,09,0.00
2013,03,28,00,10,0.00
2013,03,28,00,11,0.00
2013,03,28,00,12,0.00
2013,03,28,00,13,0.00
2013,03,28,00,14,0.00
2013,03,28,00,15,0.00
2013,03,28,00,16,0.00
2013,03,28,00,17,0.00
2013,03,28,00,18,0.00
2013,03,28,00,19,0.00
2013,03,28,00,20,0.00
2013,03,28,00,21,0.00
2013,03,28,00,22,0.00
2013,03,28,00,23,0.00
2013,03,28,00,24,0.00
2013,03,28,00,25,0.00
2013,03,28,00,26,0.00
2013,03,28,00,27,0.00
2013,03,28,00,28,0.00
2013,03,28,00,29,0.00
2013,03,28,00,30,0.00
2013,03,28,00,31,0.00
2013,03,28,00,32,0.00
2013,03,28,00,33,0.00
2013,03,28,00,34,0.00
2013,03,28,00,35,0.00
2013,03,28,00,36,0.00
2013,03,28,00,37,0.00
2013,03,28,00,38,0.00
2013,03,28,00,39,0.00
2013,03,28,00,40,0.00
2013,03,28,00,41,0.00
2013,03,28,00,42,0.00
2013,03,28,00,43,0.00
2013,03,28,00,44,0.00
2013,03,28,00,45,0.00
2013,03,28,00,46,0.00
2013,03,28,00,47,0.00
2013,03,28,00,48,0.00
2013,03,28,00,49,0.00
2013,03,28,00,50,0.00
2013,03,28,00,51,0.00
2013,03,28,00,52,0.00
2013,03,28,00,53,0.00
2013,03,28,00,54,0.00
2013,03,28,00,55,0.00
2013,03,28,00,56,0.00
2013,03,28,00,57,0.00
2013,03,28,00,58,0.00
2013,03,28,00,59,0.00
2013,03,28,01,00,0.00
2013,03,28,01,01,0.00
2013,03,28,01,02,0.00
2013,03,28,01,03,0.00
2013,03,28,01,04,0.00
2013,03,28,01,05,0.00
2013,03,28,01,06,0.00
2013,03,28,01,07,0.00
2013,03,28,01,08,0.00
2013,03,28,01,09,0.00
2013,03,28,01,10,0.00
2013,03,28,01,11,0.00
2013,03,28,01,12,0.00
2013,03,28,01,13,0.00
2013,03,28,01,14,0.00
2013,03,28,01,15,0.00
2013,03,28,01,16,0.00
2013,03,28,01,17,0.00
2013,03,28,01,18,0.00
2013,03,28,01,19,0.00
2013,03,28,01,20,0.00
2013,03,28,01,21,0.00
2013,03,28,01,22,0.00
2013,03,28,01,23,0.00
2013,03,28,01,24,0.00
2013,03,28,01,25,0.00
2013,03,28,01,26,0.00
2013,03,28,01,27,0.00
2013,03,28,01,28,0.00
2013,03,28,01,29,0.00
2013,03,28,01,30,0.00
2013,03,28,01,31,0.00
2013,03,28,01,32,0.00
2013,03,28,01,33,0.00
2013,03,28,01,34,0.00
2013,03,28,01,35,0.00
2013,03,28,01,36,0.00
2013,03,28,01,37,0.00
2013,03,28,01,38,0.00
2013,03,28,01,39,0.00
2013,03,28,01,40,0.00
2013,03,28,01,41,0.00
2013,03,28,01,42,0.00
2013,03,28,01,43,0.00
2013,03,28,01,44,0.00
2013,03,28,01,45,0.00
2013,03,28,01,46,0.00
2013,03,28,01,47,0.00
2013,03,28,01,48,0.00
2013,03,28,01,49,0.00
2013,03,28,01,50,0.00
2013,03,28,01,51,0.00
2013,03,28,01,52,0.00
2013,03,28,01,53,0.00
2013,03,28,01,54,0.00
2013,03,28,01,55,0.00
2013,03,28,01,56,0.00
2013,03,28,01,57,0.00
2013,03,28,01,58,0.00
2013,03,28,01,59,0.00
2013,03,28,02,00,0.00
2013,03,28,02,01,0.00
2013,03,28,02,02,0.00
2013,03,28,02,03,0.00
2013,03,28,02,04,0.00
2013,03,28,02,05,0.00
2013,03,28,02,06,0.00
2013,03,28,02,07,0.00
2013,03,28,02,08,0.00
2013,03,28,02,09,0.00
2013,03,28,02,10,0.00
2013,03,28,02,11,0.00
2013,03,28,02,12,0.00
2013,03,28,02,13,0.00
2013,03,28,02,14,0.00
2013,03,28,02,15,0.00
2013,03,28,02,16,0.00
2013,03,28,02,17,0.00
2013,03,28,02,18,0.00
2013,03,28,02,19,0.00
2013,03,28,02,20,0.00
2013,03,28,02,21,0.00
2013,03,28,02,22,0.00
2013,03,28,02,23,0.00
2013,03,28,02,24,0.00
2013,03,28,02,25,0.00
2013,03,28,02,26,0.00
2013,03,28,02,27,0.00
2013,03,28,02,28,0.00
2013,03,28,02,29,0.00
2013,03,28,02,30,0.00
2013,03,28,02,31,0.00
2013,03,28,02,32,0.00
2013,03,28,02,33,0.00
2013,03,28,02,34,0.00
2013,03,28,02,35,0.00
2013,03,28,02,36,0.00
2013,03,28,02,37,0.00
2013,03,28,02,38,0.00
2013,03,28,02,39,0.00
2013,03,28,02,40,0.00
2013,03,28,02,41,0.00
2013,03,28,02,42,0.00
2013,03,28,02,43,0.00
2013,03,28,02,44,0.00
2013,03,28,02,45,0.00
2013,03,28,02,46,0.00
2013,03,28,02,47,0.00
2013,03,28,02,48,0.00
2013,03,28,02,49,0.00
2013,03,28,02,50,0.00
2013,03,28,02,51,0.00
2013,03,28,02,52,0.00
2013,03,28,02,53,0.00
2013,03,28,02,54,0.00
2013,03,28,02,55,0.00
2013,03,28,02,56,0.00
2013,03,28,02,57,0.00
2013,03,28,02,58,0.00
2013,03,28,02,59,0.00
2013,03,28,03,00,0.00
2013,03,28,03,01,0.00
2013,03,28,03,02,0.00
2013,03,28,03,03,0.00
2013,03,28,03,04,0.00
2013,03,28,03,05,0.00
2013,03,28,03,06,0.00
2013,03,28,03,07,0.00
2013,03,28,03,08,0.00
2013,03,28,03,09,0.00
2013,03,28,03,10,0.00
2013,03,28,03,11,0.00
2013,03,28,03,12,0.00
2013,03,28,03,13,0.00
2013,03,28,03,14,0.00
2013,03,28,03,15,0.00
2013,03,28,03,16,0.00
2013,03,28,03,17,0.00
2013,03,28,03,18,0.00
2013,03,28,03,19,0.00
2013,03,28,03,20,0.00
2013,03,28,03,21,0.00
2013,03,28,03,22,0.00
2013,03,28,03,23,0.00
2013,03,28,03,24,0.00
2013,03,28,03,25,0.00
2013,03,28,03,26,0.00
2013,03,28,03,27,0.00
2013,03,28,03,28,0.00
2013,03,28,03,29,0.00
2013,03,28,03,30,0.00
2013,03,28,03,31,0.00
2013,03,28,03,32,0.00
2013,03,28,03,33,0.00
2013,03,28,03,34,0.00
2013,03,28,03,35,0.00
2013,03,28,03,36,0.00
2013,03,28,03,37,0.00
2013,03,28,03,38,0.00
2013,03,28,03,39,0.00
2013,03,28,03,40,0.00
2013,03,28,03,41,0.00
2013,03,28,03,42,0.00
2013,03,28,03,43,0.00
2013,03,28,03,44,0.00
2013,03,28,03,45,0.00
2013,03,28,03,46,0.00
2013,03,28,03,47,0.00
2013,03,28,03,48,0.00
2013,03,28,03,49,0.00
2013,03,28,03,50,0.00
2013,03,28,03,51,0.00
2013,03,28,03,52,0.00
2013,03,28,03,53,0.00
2013,03,28,03,54,0.00
2013,03,28,03,55,0.00
2013,03,28,03,56,0.00
2013,03,28,03,57,0.00
2013,03,28,03,58,0.00
2013,03,28,03,59,0.00
2013,03,28,04,00,0.00
2013,03,28,04,01,0.00
2013,03,28,04,02,0.00
2013,03,28,04,03,0.00
2013,03,28,04,04,0.00
2013,03,28,04,05,0.00
2013,03,28,04,06,0.00
2013,03,28,04,07,0.00
2013,03,28,04,08,0.00
2013,03,28,04,09,0.00
2013,03,28,04,10,0.00
2013,03,28,04,11,0.00
2013,03,28,04,12,0.00
2013,03,28,04,13,0.00
2013,03,28,04,14,0.00
2013,03,28,04,15,0.00
2013,03,28,04,16,0.00
2013,03,28,04,17,0.00
2013,03,28,04,18,0.00
2013,03,28,04,19,0.00
2013,03,28,04,20,0.00
2013,03,28,04,21,0.00
2013,03,28,04,22,0.00
2013,03,28,04,23,0.00
2013,03,28,04,24,0.00
2013,03,28,04,25,0.00
2013,03,28,04,26,0.00
2013,03,28,04,27,0.00
2013,03,28,04,28,0.00
2013,03,28,04,29,0.00
2013,03,28,04,30,0.00
2013,03,28,04,31,0.00
2013,03,28,04,32,0.00
2013,03,28,04,33,0.00
2013,03,28,04,34,0.00
2013,03,28,04,35,0.00
2013,03,28,04,36,0.00
2013,03,28,04,37,0.00
2013,03,28,04,38,0.00
2013,03,28,04,39,0.00
2013,03,28,04,40,0.00
2013,03,28,04,41,0.00
2013,03,28,04,42,0.00
2013,03,28,04,43,0.00
2013,03,28,04,44,0.00
2013,03,28,04,45,0.00
2013,03,28,04,46,0.00
2013,03,28,04,47,0.00
2013,03,28,04,48,0.00
2013,03,28,04,49,0.00
2013,03,28,04,50,0.00
2013,03,28,04,51,0.00
2013,03,28,04,52,0.00
2013,03,28,04,53,0.00
2013,03,28,04,54,0.00
2013,03,28,04,55,0.00
2013,03,28,04,56,0.00
2013,03,28,04,57,0.00
2013,03,28,04,58,0.00
2013,03,28,04,59,0.00
2013,03,28,05,00,0.00
2013,03,28,05,01,0.00
2013,03,28,05,02,0.00
2013,03,28,05,03,0.00
2013,03,28,05,04,0.00
2013,03,28,05,05,0.00
2013,03,28,05,06,0.00
2013,03,28,05,07,0.00
2013,03,28,05,08,0.00
2013,03,28,05,09,0.00
2013,03,28,05,10,0.00
2013,03,28,05,11,0.00
2013,03,28,05,12,0.00
2013,03,28,05,13,0.00
2013,03,28,05,14,0.00
2013,03,28,05,15,0.00
2013,03,28,05,16,0.00
2013,03,28,05,17,0.00
2013,03,28,05,18,0.00
2013,03,28,05,19,0.00
2013,03,28,05,20,0.00
2013,03,28,05,21,0.00
2013,03,28,05,22,0.00
2013,03,28,05,23,0.00
2013,03,28,05,24,0.00
2013,03,28,05,25,0.00
2013,03,28,05,26,0.00
2013,03,28,05,27,0.00
2013,03,28,05,28,0.00
2013,03,28,05,29,0.00
2013,03,28,05,30,0.00
2013,03,28,05,31,0.00
2013,03,28,05,32,0.00
2013,03,28,05,33,0.00
2013,03,28,05,34,0.00
2013,03,28,05,35,0.00
2013,03,28,05,36,0.00
2013,03,28,05,37,0.00
2013,03,28,05,38,0.00
2013,03,28,05,39,0.00
2013,03,28,05,40,0.00
2013,03,28,05,41,0.00
2013,03,28,05,42,0.00
2013,03,28,05,43,0.00
2013,03,28,05,44,0.00
2013,03,28,05,45,0.00
2013,03,28,05,46,0.00
2013,03,28,05,47,0.00
2013,03,28,05,48,0.00
2013,03,28,05,49,0.00
2013,03,28,05,50,0.00
2013,03,28,05,51,0.00
2013,03,28,05,52,0.00
2013,03,28,05,53,0.00
2013,03,28,05,54,0.00
2013,03,28,05,55,0.00
2013,03,28,05,56,0.00
2013,03,28,05,57,0.00
2013,03,28,05,58,0.00
2013,03,28,05,59,0.00
2013,03,28,06,00,0.00
2013,03,28,06,01,0.00
2013,03,28,06,02,0.00
2013,03,28,06,03,0.00
2013,03,28,06,04,0.00
2013,03,28,06,05,0.00
2013,03,28,06,06,0.00
2013,03,28,06,07,0.00
2013,03,28,06,08,0.00
2013,03,28,06,09,0.00
2013,03,28,06,10,0.00
2013,03,28,06,11,0.00
2013,03,28,06,12,0.00
2013,03,28,06,13,0.00
2013,03,28,06,14,0.00
2013,03,28,06,15,0.00
2013,03,28,06,16,0.00
2013,03,28,06,17,0.00
2013,03,28,06,18,0.00
2013,03,28,06,19,0.00
2013,03,28,06,20,0.00
2013,03,28,06,21,0.00
2013,03,28,06,22,0.00
2013,03,28,06,23,0.00
2013,03,28,06,24,0.00
2013,03,28,06,25,0.00
2013,03,28,06,26,0.00
2013,03,28,06,27,0.00
2013,03,28,06,28,0.00
2013,03,28,06,29,0.00
2013,03,28,06,30,0.00
2013,03,28,06,31,0.00
2013,03,28,06,32,0.00
2013,03,28,06,33,0.00
2013,03,28,06,34,0.00
2013,03,28,06,35,0.00
2013,03,28,06,36,0.00
2013,03,28,06,37,0.00
2013,03,28,06,38,0.00
2013,03,28,06,39,0.00
2013,03,28,06,40,0.00
2013,03,28,06,41,0.00
2013,03,28,06,42,0.00
2013,03,28,06,43,0.00
2013,03,28,06,44,0.00
2013,03,28,06,45,0.00
2013,03,28,06,46,0.00
2013,03,28,06,47,0.00
2013,03,28,06,48,0.00
2013,03,28,06,49,0.00
2013,03,28,06,50,0.00
2013,03,28,06,51,0.00
2013,03,28,06,52,0.00
2013,03,28,06,53,0.00
2013,03,28,06,54,0.00
2013,03,28,06,55,0.00
2013,03,28,06,56,0.00
2013,03,28,06,57,0.00
2013,03,28,06,58,0.00
2013,03,28,06,59,0.00
2013,03,28,07,00,0.00
2013,03,28,07,01,0.00
2013,03,28,07,02,0.00
2013,03,28,07,03,0.00
2013,03,28,07,04,0.00
2013,03,28,07,05,2.80
2013,03,28,07,06,5.00
2013,03,28,07,07,5.00
2013,03,28,07,08,5.20
2013,03,28,07,09,7.00
2013,03,28,07,10,7.00
2013,03,28,07,11,8.20
2013,03,28,07,12,9.00
2013,03,28,07,13,10.70
2013,03,28,07,14,11.00
2013,03,28,07,15,11.30
2013,03,28,07,16,12.00
2013,03,28,07,17,12.00
2013,03,28,07,18,13.40
2013,03,28,07,19,15.70
2013,03,28,07,20,18.50
2013,03,28,07,21,21.00
2013,03,28,07,22,21.00
2013,03,28,07,23,23.30
2013,03,28,07,24,25.00
2013,03,28,07,25,25.90
2013,03,28,07,26,26.00
2013,03,28,07,27,26.00
2013,03,28,07,28,26.00
2013,03,28,07,29,26.00
2013,03,28,07,30,26.00
2013,03,28,07,31,26.00
2013,03,28,07,32,26.40
2013,03,28,07,33,28.00
2013,03,28,07,34,28.00
2013,03,28,07,35,29.30
2013,03,28,07,36,30.00
2013,03,28,07,37,30.00
2013,03,28,07,38,30.00
2013,03,28,07,39,30.70
2013,03,28,07,40,32.00
2013,03,28,07,41,32.70
2013,03,28,07,42,33.00
2013,03,28,07,43,33.00
2013,03,28,07,44,33.40
2013,03,28,07,45,35.00
2013,03,28,07,46,35.00
2013,03,28,07,47,32.90
2013,03,28,07,48,32.00
2013,03,28,07,49,32.00
2013,03,28,07,50,32.00
2013,03,28,07,51,32.00
2013,03,28,07,52,32.00
2013,03,28,07,53,32.70
2013,03,28,07,54,33.00
2013,03,28,07,55,33.00
2013,03,28,07,56,33.00
2013,03,28,07,57,33.00
2013,03,28,07,58,33.00
2013,03,28,07,59,33.00
2013,03,28,08,00,34.70
2013,03,28,08,01,33.00
2013,03,28,08,02,33.00
2013,03,28,08,03,33.00
2013,03,28,08,04,33.00
2013,03,28,08,05,33.00
2013,03,28,08,06,33.00
2013,03,28,08,07,31.60
2013,03,28,08,08,30.00
2013,03,28,08,09,30.00
2013,03,28,08,10,28.70
2013,03,28,08,11,28.00
2013,03,28,08,12,27.80
2013,03,28,08,13,26.00
2013,03,28,08,14,26.00
2013,03,28,08,15,26.00
2013,03,28,08,16,26.00
2013,03,28,08,17,26.00
2013,03,28,08,18,26.20
2013,03,28,08,19,28.00
2013,03,28,08,20,28.00
2013,03,28,08,21,29.10
2013,03,28,08,22,30.00
2013,03,28,08,23,31.60
2013,03,28,08,24,32.10
2013,03,28,08,25,33.50
2013,03,28,08,26,35.70
2013,03,28,08,27,38.00
2013,03,28,08,28,39.70
2013,03,28,08,29,41.70
2013,03,28,08,30,42.20
2013,03,28,08,31,44.60
2013,03,28,08,32,46.00
2013,03,28,08,33,46.00
2013,03,28,08,34,46.00
2013,03,28,08,35,46.00
2013,03,28,08,36,46.00
2013,03,28,08,37,46.00
2013,03,28,08,38,46.00
2013,03,28,08,39,46.00
2013,03,28,08,40,46.00
2013,03,28,08,41,46.00
2013,03,28,08,42,46.00
2013,03,28,08,43,45.40
2013,03,28,08,44,44.00
2013,03,28,08,45,44.00
2013,03,28,08,46,42.50
2013,03,28,08,47,42.00
2013,03,28,08,48,40.00
2013,03,28,08,49,40.00
2013,03,28,08,50,40.00
2013,03,28,08,51,40.00
2013,03,28,08,52,40.00
2013,03,28,08,53,41.80
2013,03,28,08,54,42.00
2013,03,28,08,55,42.00
2013,03,28,08,56,42.90
2013,03,28,08,57,44.00
2013,03,28,08,58,45.60
2013,03,28,08,59,46.10
2013,03,28,09,00,47.00
2013,03,28,09,01,47.70
2013,03,28,09,02,50.00
2013,03,28,09,03,51.00
2013,03,28,09,04,52.60
2013,03,28,09,05,53.90
2013,03,28,09,06,54.50
2013,03,28,09,07,56.70
2013,03,28,09,08,59.10
2013,03,28,09,09,61.40
2013,03,28,09,10,62.00
2013,03,28,09,11,63.00
2013,03,28,09,12,63.50
2013,03,28,09,13,65.00
2013,03,28,09,14,66.10
2013,03,28,09,15,68.50
2013,03,28,09,16,69.80
2013,03,28,09,17,72.20
2013,03,28,09,18,74.50
2013,03,28,09,19,76.40
2013,03,28,09,20,77.00
2013,03,28,09,21,78.50
2013,03,28,09,22,80.80
2013,03,28,09,23,83.50
2013,03,28,09,24,86.60
2013,03,28,09,25,88.90
2013,03,28,09,26,91.80
2013,03,28,09,27,94.50
2013,03,28,09,28,97.70
2013,03,28,09,29,102.40
2013,03,28,09,30,104.90
2013,03,28,09,31,108.80
2013,03,28,09,32,112.80
2013,03,28,09,33,117.20
2013,03,28,09,34,120.80
2013,03,28,09,35,123.40
2013,03,28,09,36,125.60
2013,03,28,09,37,127.00
2013,03,28,09,38,127.00
2013,03,28,09,39,127.00
2013,03,28,09,40,127.00
2013,03,28,09,41,127.00
2013,03,28,09,42,127.40
2013,03,28,09,43,129.00
2013,03,28,09,44,132.60
2013,03,28,09,45,134.80
2013,03,28,09,46,139.30
2013,03,28,09,47,145.80
2013,03,28,09,48,153.00
2013,03,28,09,49,159.20
2013,03,28,09,50,165.20
2013,03,28,09,51,172.60
2013,03,28,09,52,176.40
2013,03,28,09,53,180.00
2013,03,28,09,54,183.00
2013,03,28,09,55,184.60
2013,03,28,09,56,187.40
2013,03,28,09,57,189.70
2013,03,28,09,58,192.90
2013,03,28,09,59,193.60
2013,03,28,10,00,196.70
2013,03,28,10,01,200.80
2013,03,28,10,02,203.50
2013,03,28,10,03,208.50
2013,03,28,10,04,213.40
2013,03,28,10,05,221.70
2013,03,28,10,06,229.10
2013,03,28,10,07,218.90
2013,03,28,10,08,214.50
2013,03,28,10,09,213.10
2013,03,28,10,10,209.00
2013,03,28,10,11,209.70
2013,03,28,10,12,213.40
2013,03,28,10,13,218.40
2013,03,28,10,14,223.90
2013,03,28,10,15,231.50
2013,03,28,10,16,236.60
2013,03,28,10,17,239.70
2013,03,28,10,18,242.00
2013,03,28,10,19,243.00
2013,03,28,10,20,243.80
2013,03,28,10,21,244.00
2013,03,28,10,22,244.00
2013,03,28,10,23,244.00
2013,03,28,10,24,245.10
2013,03,28,10,25,246.00
2013,03,28,10,26,247.60
2013,03,28,10,27,251.20
2013,03,28,10,28,256.20
2013,03,28,10,29,263.60
2013,03,28,10,30,272.70
2013,03,28,10,31,279.50
2013,03,28,10,32,286.10
2013,03,28,10,33,290.50
2013,03,28,10,34,297.50
2013,03,28,10,35,299.00
2013,03,28,10,36,299.00
2013,03,28,10,37,302.20
2013,03,28,10,38,307.40
2013,03,28,10,39,313.50
2013,03,28,10,40,325.10
2013,03,28,10,41,352.70
2013,03,28,10,42,357.20
2013,03,28,10,43,359.00
2013,03,28,10,44,365.60
2013,03,28,10,45,381.50
2013,03,28,10,46,361.10
2013,03,28,10,47,358.10
2013,03,28,10,48,353.80
2013,03,28,10,49,350.50
2013,03,28,10,50,350.00
2013,03,28,10,51,352.50
2013,03,28,10,52,355.70
2013,03,28,10,53,355.10
2013,03,28,10,54,351.20
2013,03,28,10,55,354.00
2013,03,28,10,56,391.80
2013,03,28,10,57,370.20
2013,03,28,10,58,380.00
2013,03,28,10,59,404.00
2013,03,28,11,00,521.00
2013,03,28,11,01,563.00
2013,03,28,11,02,554.00
2013,03,28,11,03,545.20
2013,03,28,11,04,519.60
2013,03,28,11,05,533.50
2013,03,28,11,06,533.00
2013,03,28,11,07,459.40
2013,03,28,11,08,369.00
2013,03,28,11,09,358.00
2013,03,28,11,10,388.00
2013,03,28,11,11,376.00
2013,03,28,11,12,374.40
2013,03,28,11,13,376.80
2013,03,28,11,14,381.50
2013,03,28,11,15,434.30
2013,03,28,11,16,454.80
2013,03,28,11,17,379.50
2013,03,28,11,18,376.50
2013,03,28,11,19,337.20
2013,03,28,11,20,308.50
2013,03,28,11,21,292.20
2013,03,28,11,22,323.90
2013,03,28,11,23,353.90
2013,03,28,11,24,286.30
2013,03,28,11,25,251.30
2013,03,28,11,26,239.40
2013,03,28,11,27,227.20
2013,03,28,11,28,217.90
2013,03,28,11,29,209.80
2013,03,28,11,30,203.30
2013,03,28,11,31,200.30
2013,03,28,11,32,197.00
2013,03,28,11,33,197.00
2013,03,28,11,34,197.00
2013,03,28,11,35,197.00
2013,03,28,11,36,198.50
2013,03,28,11,37,199.90
2013,03,28,11,38,202.40
2013,03,28,11,39,205.10
2013,03,28,11,40,207.90
2013,03,28,11,41,210.30
2013,03,28,11,42,213.40
2013,03,28,11,43,216.00
2013,03,28,11,44,218.40
2013,03,28,11,45,220.00
2013,03,28,11,46,220.00
2013,03,28,11,47,220.00
2013,03,28,11,48,218.40
2013,03,28,11,49,217.60
2013,03,28,11,50,213.40
2013,03,28,11,51,210.20
2013,03,28,11,52,207.50
2013,03,28,11,53,204.60
2013,03,28,11,54,204.00
2013,03,28,11,55,204.00
2013,03,28,11,56,204.50
2013,03,28,11,57,206.00
2013,03,28,11,58,204.90
2013,03,28,11,59,202.50
2013,03,28,12,00,202.00
2013,03,28,12,01,199.80
2013,03,28,12,02,199.00
2013,03,28,12,03,198.20
2013,03,28,12,04,197.00
2013,03,28,12,05,197.00
2013,03,28,12,06,195.40
2013,03,28,12,07,197.00
2013,03,28,12,08,197.60
2013,03,28,12,09,199.00
2013,03,28,12,10,199.60
2013,03,28,12,11,201.50
2013,03,28,12,12,202.10
2013,03,28,12,13,204.30
2013,03,28,12,14,206.90
2013,03,28,12,15,209.90
2013,03,28,12,16,212.90
2013,03,28,12,17,216.90
2013,03,28,12,18,219.90
2013,03,28,12,19,225.80
2013,03,28,12,20,230.10
2013,03,28,12,21,234.40
2013,03,28,12,22,239.60
2013,03,28,12,23,244.90
2013,03,28,12,24,249.80
2013,03,28,12,25,254.00
2013,03,28,12,26,259.00
2013,03,28,12,27,263.60
2013,03,28,12,28,268.90
2013,03,28,12,29,274.90
2013,03,28,12,30,281.10
2013,03,28,12,31,287.80
2013,03,28,12,32,291.80
2013,03,28,12,33,298.00
2013,03,28,12,34,303.00
2013,03,28,12,35,307.20
2013,03,28,12,36,311.20
2013,03,28,12,37,313.90
2013,03,28,12,38,317.70
2013,03,28,12,39,322.80
2013,03,28,12,40,328.00
2013,03,28,12,41,331.50
2013,03,28,12,42,336.30
2013,03,28,12,43,340.00
2013,03,28,12,44,344.20
2013,03,28,12,45,349.40
2013,03,28,12,46,357.60
2013,03,28,12,47,369.40
2013,03,28,12,48,381.90
2013,03,28,12,49,389.00
2013,03,28,12,50,397.30
2013,03,28,12,51,406.40
2013,03,28,12,52,421.10
2013,03,28,12,53,437.20
2013,03,28,12,54,447.50
2013,03,28,12,55,465.50
2013,03,28,12,56,488.60
2013,03,28,12,57,487.20
2013,03,28,12,58,435.50
2013,03,28,12,59,410.30
2013,03,28,13,00,403.80
2013,03,28,13,01,405.50
2013,03,28,13,02,413.80
2013,03,28,13,03,420.40
2013,03,28,13,04,433.20
2013,03,28,13,05,435.10
2013,03,28,13,06,461.80
2013,03,28,13,07,501.00
2013,03,28,13,08,599.60
2013,03,28,13,09,707.30
2013,03,28,13,10,707.00
2013,03,28,13,11,707.00
2013,03,28,13,12,691.20
2013,03,28,13,13,626.70
2013,03,28,13,14,602.50
2013,03,28,13,15,613.00
2013,03,28,13,16,485.80
2013,03,28,13,17,481.90
2013,03,28,13,18,661.00
2013,03,28,13,19,755.70
2013,03,28,13,20,886.00
2013,03,28,13,21,811.10
2013,03,28,13,22,779.00
2013,03,28,13,23,747.00
2013,03,28,13,24,480.20
2013,03,28,13,25,452.40
2013,03,28,13,26,367.70
2013,03,28,13,27,348.50
2013,03,28,13,28,333.90
2013,03,28,13,29,320.00
2013,03,28,13,30,322.20
2013,03,28,13,31,337.40
2013,03,28,13,32,348.80
2013,03,28,13,33,344.50
2013,03,28,13,34,352.50
2013,03,28,13,35,373.20
2013,03,28,13,36,368.30
2013,03,28,13,37,355.10
2013,03,28,13,38,357.20
2013,03,28,13,39,365.50
2013,03,28,13,40,382.40
2013,03,28,13,41,406.40
2013,03,28,13,42,422.20
2013,03,28,13,43,439.60
2013,03,28,13,44,455.00
2013,03,28,13,45,455.00
2013,03,28,13,46,502.80
2013,03,28,13,47,504.00
2013,03,28,13,48,556.30
2013,03,28,13,49,594.00
2013,03,28,13,50,525.20
2013,03,28,13,51,485.00
2013,03,28,13,52,540.40
2013,03,28,13,53,1039.00
2013,03,28,13,54,801.40
2013,03,28,13,55,410.80
2013,03,28,13,56,368.30
2013,03,28,13,57,362.00
2013,03,28,13,58,365.40
2013,03,28,13,59,349.80
2013,03,28,14,00,341.40
2013,03,28,14,01,337.30
2013,03,28,14,02,334.60
2013,03,28,14,03,332.30
2013,03,28,14,04,330.10
2013,03,28,14,05,332.20
2013,03,28,14,06,342.80
2013,03,28,14,07,356.80
2013,03,28,14,08,377.30
2013,03,28,14,09,372.90
2013,03,28,14,10,363.00
2013,03,28,14,11,359.40
2013,03,28,14,12,369.10
2013,03,28,14,13,363.40
2013,03,28,14,14,358.50
2013,03,28,14,15,353.90
2013,03,28,14,16,366.80
2013,03,28,14,17,395.70
2013,03,28,14,18,360.90
2013,03,28,14,19,367.40
2013,03,28,14,20,398.30
2013,03,28,14,21,408.00
2013,03,28,14,22,498.00
2013,03,28,14,23,858.00
2013,03,28,14,24,686.10
2013,03,28,14,25,427.20
2013,03,28,14,26,401.00
2013,03,28,14,27,384.10
2013,03,28,14,28,365.20
2013,03,28,14,29,349.30
2013,03,28,14,30,340.50
2013,03,28,14,31,334.10
2013,03,28,14,32,330.40
2013,03,28,14,33,329.10
2013,03,28,14,34,329.20
2013,03,28,14,35,332.40
2013,03,28,14,36,344.90
2013,03,28,14,37,354.30
2013,03,28,14,38,355.00
2013,03,28,14,39,354.50
2013,03,28,14,40,348.80
2013,03,28,14,41,343.30
2013,03,28,14,42,341.00
2013,03,28,14,43,349.80
2013,03,28,14,44,364.00
2013,03,28,14,45,347.80
2013,03,28,14,46,350.20
2013,03,28,14,47,360.00
2013,03,28,14,48,366.00
2013,03,28,14,49,372.40
2013,03,28,14,50,375.20
2013,03,28,14,51,402.90
2013,03,28,14,52,437.90
2013,03,28,14,53,487.90
2013,03,28,14,54,478.00
2013,03,28,14,55,414.60
2013,03,28,14,56,405.60
2013,03,28,14,57,449.60
2013,03,28,14,58,422.70
2013,03,28,14,59,394.00
2013,03,28,15,00,394.00
2013,03,28,15,01,394.00
2013,03,28,15,02,578.00
2013,03,28,15,03,615.00
2013,03,28,15,04,631.90
2013,03,28,15,05,617.00
2013,03,28,15,06,628.00
2013,03,28,15,07,614.50
2013,03,28,15,08,615.10
2013,03,28,15,09,589.00
2013,03,28,15,10,589.00
2013,03,28,15,11,589.00
2013,03,28,15,12,589.00
2013,03,28,15,13,589.00
2013,03,28,15,14,591.60
2013,03,28,15,15,613.90
2013,03,28,15,16,609.30
2013,03,28,15,17,606.90
2013,03,28,15,18,605.30
2013,03,28,15,19,603.30
2013,03,28,15,20,600.90
2013,03,28,15,21,598.70
2013,03,28,15,22,597.20
2013,03,28,15,23,596.00
2013,03,28,15,24,594.50
2013,03,28,15,25,595.70
2013,03,28,15,26,596.00
2013,03,28,15,27,591.30
2013,03,28,15,28,575.80
2013,03,28,15,29,574.20
2013,03,28,15,30,562.40
2013,03,28,15,31,557.00
2013,03,28,15,32,562.40
2013,03,28,15,33,558.40
2013,03,28,15,34,557.00
2013,03,28,15,35,555.90
2013,03,28,15,36,555.00
2013,03,28,15,37,554.80
2013,03,28,15,38,551.20
2013,03,28,15,39,549.50
2013,03,28,15,40,552.10
2013,03,28,15,41,548.20
2013,03,28,15,42,547.00
2013,03,28,15,43,549.30
2013,03,28,15,44,543.60
2013,03,28,15,45,546.30
2013,03,28,15,46,545.00
2013,03,28,15,47,541.90
2013,03,28,15,48,538.40
2013,03,28,15,49,540.70
2013,03,28,15,50,538.00
2013,03,28,15,51,538.70
2013,03,28,15,52,540.00
2013,03,28,15,53,540.00
2013,03,28,15,54,538.50
2013,03,28,15,55,538.00
2013,03,28,15,56,537.50
2013,03,28,15,57,534.90
2013,03,28,15,58,533.00
2013,03,28,15,59,531.70
2013,03,28,16,00,532.60
2013,03,28,16,01,530.80
2013,03,28,16,02,530.20
2013,03,28,16,03,533.60
2013,03,28,16,04,529.70
2013,03,28,16,05,531.10
2013,03,28,16,06,502.40
2013,03,28,16,07,519.70
2013,03,28,16,08,510.50
2013,03,28,16,09,468.70
2013,03,28,16,10,492.90
2013,03,28,16,11,508.80
2013,03,28,16,12,510.00
2013,03,28,16,13,512.00
2013,03,28,16,14,512.90
2013,03,28,16,15,515.90
2013,03,28,16,16,519.90
2013,03,28,16,17,525.50
2013,03,28,16,18,459.90
2013,03,28,16,19,401.20
2013,03,28,16,20,484.20
2013,03,28,16,21,466.00
2013,03,28,16,22,452.50
2013,03,28,16,23,412.70
2013,03,28,16,24,445.50
2013,03,28,16,25,411.80
2013,03,28,16,26,226.10
2013,03,28,16,27,192.10
2013,03,28,16,28,176.70
2013,03,28,16,29,172.40
2013,03,28,16,30,178.40
2013,03,28,16,31,182.00
2013,03,28,16,32,185.00
2013,03,28,16,33,181.70
2013,03,28,16,34,194.00
2013,03,28,16,35,202.00
2013,03,28,16,36,281.40
2013,03,28,16,37,307.50
2013,03,28,16,38,229.20
2013,03,28,16,39,255.50
2013,03,28,16,40,228.40
2013,03,28,16,41,202.00
2013,03,28,16,42,383.00
2013,03,28,16,43,328.20
2013,03,28,16,44,129.80
2013,03,28,16,45,116.70
2013,03,28,16,46,113.30
2013,03,28,16,47,113.00
2013,03,28,16,48,121.20
2013,03,28,16,49,150.20
2013,03,28,16,50,158.40
2013,03,28,16,51,157.70
2013,03,28,16,52,152.90
2013,03,28,16,53,155.00
2013,03,28,16,54,137.60
2013,03,28,16,55,127.30
2013,03,28,16,56,118.60
2013,03,28,16,57,113.00
2013,03,28,16,58,108.10
2013,03,28,16,59,105.20
2013,03,28,17,00,101.60
2013,03,28,17,01,99.30
2013,03,28,17,02,96.60
2013,03,28,17,03,95.00
2013,03,28,17,04,95.00
2013,03,28,17,05,95.70
2013,03,28,17,06,107.20
2013,03,28,17,07,100.60
2013,03,28,17,08,97.10
2013,03,28,17,09,89.20
2013,03,28,17,10,88.00
2013,03,28,17,11,86.10
2013,03,28,17,12,86.00
2013,03,28,17,13,86.70
2013,03,28,17,14,89.50
2013,03,28,17,15,104.00
2013,03,28,17,16,96.80
2013,03,28,17,17,96.90
2013,03,28,17,18,99.30